Regional Weather Roundup
Issued by NWS

Home | Current Version | Previous Version | Text Only | Print | Product List | Glossary On
Versions: 1 2 3 4 5 6 7 8 9 10 11 12 13 14 15 16 17 18 19 20 21 22 23 24 25 26 27 28 29 30 31 32 33 34 35 36 37 38 39 40 41 42 43 44 45 46 47 48 49 50
575
ASUS43 KDTX 071001
RWRMI
MICHIGAN HOURLY REGIONAL WEATHER ROUNDUP
NATIONAL WEATHER SERVICE DETROIT/PONTIAC MI
500 AM EST WED DEC 07 2016

NOTE: "FAIR" INDICATES FEW OR NO CLOUDS BELOW 12,000 FEET WITH NO
SIGNIFICANT WEATHER AND/OR OBSTRUCTION TO VISIBILITY.

MIZ047>049-052>055-059>063-066>070-074>076-081>083-071100-
SOUTHEAST LOWER MICHIGAN

CITY           SKY/WX    TMP DP  RH WIND       PRES   REMARKS
ADRIAN         MOCLDY    30  22  72 W7        29.99R WCI  23
ALMA           CLOUDY    32  23  69 W9G17     29.89S WCI  24
ANN ARBOR      CLOUDY    31  23  72 SW15G21   29.95R WCI  20
BAD AXE        CLOUDY    30  22  70 W15G25    29.86R WCI  19
CARO           CLOUDY    31  25  78 SW8       29.87S WCI  24
DETROIT CITY   MOCLDY    32  25  75 SW12      29.95R WCI  23
DETROIT        MOCLDY    31  24  75 SW9       29.97R WCI  23
FLINT          CLOUDY    32  21  64 W21       29.90S WCI  20
GROSSE ILE     CLOUDY    32  26  77 W8        29.96R WCI  25
HILLSDALE      CLOUDY    30  23  74 W12       29.95R WCI  21
HOWELL         CLOUDY    32  24  72 W12       29.92R WCI  23

CITY           SKY/WX    TMP DP  RH WIND       PRES   REMARKS
JACKSON        CLOUDY    31  21  66 W17G24    29.95R WCI  19
LAMBERTVILLE   CLOUDY    32  24  73 W7        30.00R WCI  26
LANSING        CLOUDY    32  22  66 W16       29.93R WCI  21
LAPEER         NOT AVBL
MASON          CLOUDY    32  23  71 W10G20    29.93R WCI  23
MONROE         CLOUDY    31  28  86 SW10      29.98R WCI  22
MT. CLEMENS    PTCLDY    32  23  70 SW12      29.91R WCI  23
PONTIAC        CLOUDY    31  22  69 W10G24    29.90R WCI  22
PORT HOPE        N/A     32  22  66 W9G22     29.83R WCI  24
PORT HURON     PTCLDY    32  23  69 W7        29.92R WCI  26
TRI CITIES     CLOUDY    31  23  72 W15       29.88S WCI  20
MIDLAND        CLOUDY    32  20  60 W8G16     29.86F WCI  25
TROY           PTCLDY    32  22  67 W12       29.95R WCI  23
SAGINAW HB     CLOUDY    32  21  64 SW13      29.88S WCI  22
$$
MIZ043>046-050>051-056>058-064>065-071>073-077>080-071100-
SOUTHWEST LOWER MICHIGAN

CITY           SKY/WX    TMP DP  RH WIND       PRES   REMARKS
BATTLE CREEK   CLOUDY    31  23  72 W15G24    29.95R WCI  20
BENTON HARBOR  MOCLDY    32  22  66 W21G31    29.99S WCI  20
BIG RAPIDS     CLOUDY    31  20  64 SW17      29.85R WCI  19
COLDWATER      CLOUDY    30  23  75 W12G22    29.97R WCI  20
FREMONT        CLOUDY    30  19  62 W8        29.89R WCI  23
HOLLAND        CLOUDY    32  23  69 W17       29.94R WCI  21
GRAND RAPIDS   CLOUDY    32  22  66 W16       29.92R WCI  21
IONIA          CLOUDY    31  22  69 W17G25    29.90R WCI  20
KALAMAZOO      CLOUDY    31  21  66 W13G22    29.96S WCI  21
LUDINGTON      CLOUDY    30  23  74 SW12G23   29.87R WCI  21
MARSHALL       CLOUDY    31  21  67 W18G24    29.94S WCI  19
MOUNT PLEASANT CLOUDY    31  21  66 SW13G18   29.85F WCI  21
MUSKEGON       CLOUDY    32  23  69 W14       29.92R WCI  22
SOUTH HAVEN    MOCLDY    32  23  71 W17G26    29.97S WCI  20
$$
MIZ016>042-071100-
NORTHERN LOWER MICHIGAN

CITY           SKY/WX    TMP DP  RH WIND       PRES   REMARKS
ALPENA         CLOUDY    31  20  63 W10       29.78R WCI  22
BEAVER ISLAND  CLOUDY    30  23  73 SW20G29   29.73S WCI  18
BELLAIRE       CLOUDY    31  21  67 SW8G21    29.79F WCI  23
CADILLAC       CLOUDY    27  19  72 SW13G20   29.79R WCI  16
CHARLEVOIX     CLOUDY    32  23  70 SW14G28   29.78S WCI  22
FRANKFORT      CLOUDY    31  22  72 W14G22    29.81F WCI  20
GAYLORD        CLOUDY    28  18  66 W24G33    29.74R WCI  14
GRAYLING       CLOUDY    29  21  71 W15G21    29.78S WCI  18
HARBOR SPRINGS CLOUDY    32  23  71 SW17G30   29.74R WCI  21
HOUGHTON LAKE  CLOUDY    28  19  69 W18G31    29.80S WCI  15
MANISTEE       CLOUDY    30  21  69 SW13G23   29.84S WCI  20
OSCODA         CLOUDY    31  20  63 MISG      29.81R
PELLSTON       CLOUDY    31  20  63 W17G29    29.73R WCI  19
ROGERS CITY    CLOUDY    32  22  67 SW14G21   29.76S WCI  22
TRAVERSE CITY  CLOUDY    31  20  63 SW13G23   29.78F WCI  21
$$
MIZ007>008-015-071100-
EASTERN UPPER MICHIGAN

CITY           SKY/WX    TMP DP  RH WIND       PRES   REMARKS
KINROSS        FLURRIES  26  20  77 W10G17    29.70  WCI  16
MACKINAC ISLAN CLOUDY    31  22  69 SW20G35   29.70S WCI  19
NEWBERRY       CLOUDY    26  18  73 SW13G20   29.68S WCI  15
S. S. MARIE    CLOUDY    28  18  66 W17G26    29.69S WCI  16
MUNISING         N/A     27  15  61 SW9G21    29.67F WCI  18
$$
MIZ004>006-011>014-085-071100-
CENTRAL UPPER MICHIGAN

CITY           SKY/WX    TMP DP  RH WIND       PRES   REMARKS
MANISTIQUE     CLOUDY    27  15  59 W10G17    29.71S WCI  17
ESCANABA       FLURRIES  26  16  65 SW10G22   29.74R WCI  16
MENOMINEE      CLOUDY    26  16  65 W12G18    29.78R WCI  16
SAWYER-GWINN   CLOUDY    23  14  70 W20G28    29.66R WCI   8
$$
MIZ001>003-009>011-084-071100-
WESTERN UPPER MICHIGAN

CITY           SKY/WX    TMP DP  RH WIND       PRES   REMARKS
IRON MOUNTAIN  CLOUDY    22  12  65 SW15      29.69R WCI   9
HOUGHTON       CLOUDY    22  14  71 SW18G24   29.58S WCI   7
COPPER HARBOR    N/A     26  17  68 W13G24    29.58S WCI  15
IRONWOOD       FLURRIES  19  13  77 SW21G29   29.65R WCI   3
$$

ABBREVIATIONS USED IN REMARKS
   TC - TEMPERATURE IN CELSIUS
  WCI - WIND CHILL INDEX
   HX - HEAT INDEX
  VSB - VISIBILITY





USA.gov is the U.S. government's official web portal to all federal, state and local government web resources and services.